Retour au catalogue

NOAA 16 DEB

ActifPO
NORAD 41503·DEBRIS·🇺🇸 United States

Lancé Sep 21, 2000 depuis Vandenberg Space Force Base

Loading…

Prochains Passages (prochaines 24 heures)

TLE

VieillissantSource: Space-Track

Époque: Sep 9, 2026, 16:20 UTC

1 41503U 00055MB  26252.68120739  .00009142  00000-0  17128-2 0  9993
2 41503  98.7773  45.4533 0021294 159.3543 200.8523 14.64893288548345

Suivez NOAA 16 DEB en temps réel avec AllMySat

Download on the App Store